| time (UTC) | temp F | wind direction | speed MPH | gust MPH | rain 1hr in | rain 24hr in | rain mn in | humidity % | barometer mb |
| 20260507203113 | 65 | 233 | 4.0 | 5.0 | 0.00 | 0.00 | 0.00 | 76 | 1017.9 |
| 20260507202413 | 64 | 209 | 2.0 | 5.0 | 0.00 | 0.00 | 0.00 | 77 | 1017.9 |
| 20260507201522 | 64 | 180 | 2.0 | 5.0 | 0.00 | 0.00 | 0.00 | 76 | 1018.0 |
| 20260507200822 | 64 | 211 | 3.0 | 6.0 | 0.00 | 0.00 | 0.00 | 76 | 1018.0 |
| 20260507200122 | 64 | 177 | 3.0 | 6.0 | 0.00 | 0.00 | 0.00 | 77 | 1018.0 |
| 20260507195422 | 63 | 205 | 3.0 | 5.0 | 0.00 | 0.00 | 0.00 | 77 | 1018.1 |
| 20260507194722 | 62 | 219 | 2.0 | 5.0 | 0.00 | 0.00 | 0.00 | 77 | 1018.0 |
| 20260507193830 | 62 | 215 | 3.0 | 6.0 | 0.00 | 0.00 | 0.00 | 78 | 1018.0 |
| 20260507193131 | 61 | 200 | 3.0 | 6.0 | 0.00 | 0.00 | 0.00 | 78 | 1018.1 |
| 20260507192430 | 61 | 217 | 3.0 | 6.0 | 0.00 | 0.00 | 0.00 | 79 | 1018.2 |
| 20260507191730 | 60 | 233 | 2.0 | 6.0 | 0.00 | 0.00 | 0.00 | 80 | 1018.3 |
| 20260507191030 | 60 | 298 | 3.0 | 6.0 | 0.00 | 0.00 | 0.00 | 80 | 1018.3 |
| 20260507190139 | 59 | 214 | 2.0 | 4.0 | 0.00 | 0.00 | 0.00 | 81 | 1018.4 |
| 20260507185439 | 58 | 222 | 2.0 | 5.0 | 0.00 | 0.00 | 0.00 | 82 | 1018.5 |
| 20260507184739 | 57 | 231 | 3.0 | 6.0 | 0.00 | 0.00 | 0.00 | 83 | 1018.5 |
| 20260507184039 | 56 | 214 | 2.0 | 4.0 | 0.00 | 0.00 | 0.00 | 84 | 1018.5 |
| 20260507183339 | 56 | 222 | 3.0 | 4.0 | 0.00 | 0.00 | 0.00 | 84 | 1018.6 |
| 20260507182448 | 55 | 214 | 2.0 | 4.0 | 0.00 | 0.00 | 0.00 | 85 | 1018.7 |
| 20260507181748 | 56 | 256 | 2.0 | 4.0 | 0.00 | 0.00 | 0.00 | 85 | 1018.7 |
| 20260507181048 | 55 | 270 | 2.0 | 3.0 | 0.00 | 0.00 | 0.00 | 86 | 1018.7 |
| 20260507180348 | 55 | 135 | 1.0 | 3.0 | 0.00 | 0.00 | 0.00 | 85 | 1018.6 |
| 20260507175648 | 55 | 264 | 1.0 | 3.0 | 0.00 | 0.00 | 0.00 | 86 | 1018.6 |
| 20260507174756 | 55 | 155 | 2.0 | 4.0 | 0.00 | 0.00 | 0.00 | 86 | 1018.6 |
| 20260507174056 | 54 | 253 | 2.0 | 4.0 | 0.00 | 0.00 | 0.00 | 88 | 1018.6 |
| 20260507173356 | 54 | 169 | 1.0 | 2.0 | 0.00 | 0.00 | 0.00 | 88 | 1018.6 |
| 20260507172656 | 54 | 135 | 0.0 | 2.0 | 0.00 | 0.00 | 0.00 | 88 | 1018.6 |
| 20260507171956 | 54 | 248 | 1.0 | 3.0 | 0.00 | 0.00 | 0.00 | 88 | 1018.6 |
| 20260507171105 | 54 | 214 | 0.0 | 3.0 | 0.00 | 0.00 | 0.00 | 88 | 1018.5 |
| 20260507170405 | 53 | 295 | 0.0 | 2.0 | 0.00 | 0.00 | 0.00 | 88 | 1018.6 |
| 20260507165705 | 52 | 284 | 0.0 | 4.0 | 0.00 | 0.00 | 0.00 | 88 | 1018.5 |
| 20260507165005 | 52 | 193 | 0.0 | 3.0 | 0.00 | 0.00 | 0.00 | 89 | 1018.5 |
| 20260507164305 | 53 | 315 | 0.0 | 1.0 | 0.00 | 0.00 | 0.00 | 88 | 1018.5 |
| 20260507163413 | 52 | 22 | 1.0 | 2.0 | 0.00 | 0.00 | 0.00 | 88 | 1018.5 |
| 20260507162714 | 51 | 0 | 0.0 | 1.0 | 0.00 | 0.00 | 0.00 | 88 | 1018.5 |
| 20260507162014 | 51 | 0 | 0.0 | 2.0 | 0.00 | 0.00 | 0.00 | 88 | 1018.5 |
| 20260507161313 | 51 | 19 | 0.0 | 2.0 | 0.00 | 0.00 | 0.00 | 88 | 1018.5 |
| 20260507160613 | 51 | 346 | 1.0 | 2.0 | 0.00 | 0.00 | 0.00 | 88 | 1018.4 |
| 20260507155722 | 51 | 0 | 1.0 | 2.0 | 0.00 | 0.00 | 0.00 | 88 | 1018.4 |
| 20260507155022 | 51 | 45 | 0.0 | 2.0 | 0.00 | 0.00 | 0.00 | 88 | 1018.3 |
| 20260507154322 | 50 | 37 | 1.0 | 3.0 | 0.00 | 0.00 | 0.00 | 88 | 1018.2 |
| 20260507153622 | 50 | 3 | 2.0 | 3.0 | 0.00 | 0.00 | 0.00 | 88 | 1018.2 |
| 20260507152922 | 50 | 39 | 2.0 | 2.0 | 0.00 | 0.00 | 0.00 | 88 | 1018.2 |
| 20260507152031 | 50 | 38 | 2.0 | 2.0 | 0.00 | 0.00 | 0.00 | 88 | 1018.2 |
| 20260507151331 | 50 | 45 | 1.0 | 3.0 | 0.00 | 0.00 | 0.00 | 88 | 1018.2 |
| 20260507150631 | 49 | 45 | 2.0 | 3.0 | 0.00 | 0.00 | 0.00 | 88 | 1018.2 |
| 20260507145931 | 49 | 22 | 1.0 | 3.0 | 0.00 | 0.00 | 0.00 | 88 | 1018.3 |
| 20260507145231 | 49 | 40 | 2.0 | 3.0 | 0.00 | 0.00 | 0.00 | 88 | 1018.2 |
| 20260507144339 | 49 | 38 | 2.0 | 3.0 | 0.00 | 0.00 | 0.00 | 88 | 1018.2 |
| 20260507143640 | 49 | 45 | 1.0 | 3.0 | 0.00 | 0.00 | 0.00 | 88 | 1018.2 |
| 20260507142940 | 49 | 45 | 2.0 | 2.0 | 0.00 | 0.00 | 0.00 | 88 | 1018.2 |
| 20260507142239 | 49 | 40 | 2.0 | 2.0 | 0.00 | 0.00 | 0.00 | 88 | 1018.0 |
| 20260507141540 | 49 | 22 | 0.0 | 2.0 | 0.00 | 0.00 | 0.00 | 88 | 1018.0 |
| 20260507140648 | 49 | 10 | 1.0 | 2.0 | 0.00 | 0.00 | 0.00 | 88 | 1018.0 |
| 20260507135948 | 49 | 45 | 0.0 | 1.0 | 0.00 | 0.00 | 0.00 | 88 | 1017.9 |
| 20260507135248 | 48 | 45 | 0.0 | 1.0 | 0.00 | 0.00 | 0.00 | 88 | 1017.8 |
| 20260507134548 | 48 | 45 | 0.0 | 0.0 | 0.00 | 0.00 | 0.00 | 88 | 1017.7 |
| 20260507133848 | 48 | 45 | 0.0 | 0.0 | 0.00 | 0.00 | 0.00 | 88 | 1017.6 |
| 20260507132953 | 48 | 45 | 0.0 | 0.0 | 0.00 | 0.00 | 0.00 | 88 | 1017.5 |
| 20260507132253 | 47 | 45 | 0.0 | 0.0 | 0.00 | 0.00 | 0.00 | 88 | 1017.5 |
| 20260507131553 | 47 | 0 | 0.0 | 0.0 | 0.00 | 0.00 | 0.00 | 88 | 1017.5 |
| 20260507130853 | 47 | 315 | 0.0 | 0.0 | 0.00 | 0.00 | 0.00 | 88 | 1017.5 |
| 20260507130153 | 47 | 315 | 0.0 | 0.0 | 0.00 | 0.00 | 0.00 | 88 | 1017.4 |
| 20260507125302 | 47 | 295 | 0.0 | 0.0 | 0.00 | 0.00 | 0.00 | 88 | 1017.4 |
| 20260507124602 | 47 | 270 | 0.0 | 1.0 | 0.00 | 0.00 | 0.00 | 88 | 1017.4 |
| 20260507123902 | 47 | 315 | 0.0 | 1.0 | 0.00 | 0.00 | 0.00 | 88 | 1017.4 |
| 20260507123202 | 47 | 287 | 0.0 | 2.0 | 0.00 | 0.00 | 0.00 | 89 | 1017.3 |
| 20260507122502 | 47 | 259 | 1.0 | 2.0 | 0.00 | 0.00 | 0.00 | 89 | 1017.3 |
| 20260507121610 | 48 | 45 | 0.0 | 0.0 | 0.00 | 0.00 | 0.00 | 88 | 1017.3 |
| 20260507120911 | 48 | 0 | 0.0 | 0.0 | 0.00 | 0.00 | 0.00 | 88 | 1017.4 |
| 20260507120210 | 48 | 0 | 0.0 | 0.0 | 0.00 | 0.00 | 0.00 | 88 | 1017.4 |
| 20260507115510 | 48 | 0 | 0.0 | 0.0 | 0.00 | 0.00 | 0.00 | 88 | 1017.4 |
| 20260507114810 | 48 | 0 | 0.0 | 0.0 | 0.00 | 0.00 | 0.00 | 88 | 1017.5 |
| 20260507113919 | 48 | 0 | 0.0 | 1.0 | 0.00 | 0.00 | 0.00 | 88 | 1017.5 |
| 20260507113219 | 48 | 0 | 1.0 | 1.0 | 0.00 | 0.00 | 0.00 | 88 | 1017.5 |
| 20260507112519 | 48 | 0 | 0.0 | 1.0 | 0.00 | 0.00 | 0.00 | 88 | 1017.6 |
| 20260507111819 | 48 | 0 | 0.0 | 2.0 | 0.00 | 0.00 | 0.00 | 88 | 1017.6 |
| 20260507111119 | 48 | 0 | 1.0 | 2.0 | 0.00 | 0.00 | 0.00 | 88 | 1017.5 |
| 20260507110227 | 48 | 3 | 1.0 | 2.0 | 0.00 | 0.00 | 0.00 | 88 | 1017.6 |
| 20260507105528 | 48 | 0 | 0.0 | 2.0 | 0.00 | 0.00 | 0.00 | 88 | 1017.5 |
| 20260507104828 | 48 | 6 | 0.0 | 2.0 | 0.00 | 0.00 | 0.00 | 88 | 1017.6 |
| 20260507104127 | 48 | 0 | 0.0 | 2.0 | 0.00 | 0.00 | 0.00 | 88 | 1017.6 |
| 20260507103428 | 48 | 0 | 0.0 | 2.0 | 0.00 | 0.00 | 0.00 | 88 | 1017.6 |
| 20260507102536 | 48 | 0 | 1.0 | 2.0 | 0.00 | 0.00 | 0.00 | 88 | 1017.7 |
| 20260507101836 | 48 | 0 | 1.0 | 2.0 | 0.00 | 0.00 | 0.00 | 88 | 1017.7 |
| 20260507101136 | 49 | 0 | 1.0 | 2.0 | 0.00 | 0.00 | 0.00 | 88 | 1017.7 |
| 20260507100436 | 48 | 0 | 0.0 | 2.0 | 0.00 | 0.00 | 0.00 | 88 | 1017.8 |
| 20260507095736 | 48 | 0 | 2.0 | 2.0 | 0.00 | 0.00 | 0.00 | 88 | 1017.7 |
| 20260507094845 | 48 | 34 | 1.0 | 2.0 | 0.00 | 0.00 | 0.00 | 88 | 1017.8 |
| 20260507094145 | 48 | 45 | 2.0 | 2.0 | 0.00 | 0.00 | 0.00 | 88 | 1017.8 |
| 20260507093445 | 48 | 42 | 2.0 | 3.0 | 0.00 | 0.00 | 0.00 | 88 | 1017.8 |
| 20260507092745 | 48 | 45 | 2.0 | 3.0 | 0.00 | 0.00 | 0.00 | 88 | 1017.8 |
| 20260507092045 | 48 | 45 | 2.0 | 3.0 | 0.00 | 0.00 | 0.00 | 88 | 1017.9 |
| 20260507091153 | 48 | 30 | 2.0 | 3.0 | 0.00 | 0.00 | 0.00 | 88 | 1018.0 |
| 20260507090454 | 48 | 45 | 1.0 | 2.0 | 0.00 | 0.00 | 0.00 | 88 | 1018.0 |
| 20260507085753 | 48 | 45 | 1.0 | 2.0 | 0.00 | 0.00 | 0.00 | 88 | 1018.0 |
| 20260507085053 | 48 | 45 | 1.0 | 2.0 | 0.00 | 0.00 | 0.00 | 88 | 1018.0 |
| 20260507084354 | 48 | 45 | 1.0 | 2.0 | 0.00 | 0.00 | 0.00 | 88 | 1018.0 |
| 20260507083502 | 48 | 45 | 2.0 | 2.0 | 0.00 | 0.00 | 0.00 | 88 | 1018.0 |
| 20260507082802 | 48 | 45 | 2.0 | 3.0 | 0.00 | 0.00 | 0.00 | 88 | 1018.0 |
| 20260507082103 | 49 | 45 | 2.0 | 3.0 | 0.00 | 0.00 | 0.00 | 88 | 1018.0 |
| 20260507081402 | 49 | 45 | 2.0 | 2.0 | 0.00 | 0.00 | 0.00 | 87 | 1017.9 |
| 20260507080702 | 49 | 45 | 2.0 | 2.0 | 0.00 | 0.00 | 0.00 | 87 | 1017.9 |
| 20260507075811 | 49 | 45 | 2.0 | 3.0 | 0.00 | 0.00 | 0.00 | 87 | 1017.9 |
| 20260507075111 | 50 | 45 | 2.0 | 3.0 | 0.00 | 0.00 | 0.00 | 87 | 1018.0 |
| 20260507074411 | 50 | 45 | 2.0 | 2.0 | 0.00 | 0.00 | 0.00 | 87 | 1018.0 |
| 20260507073712 | 50 | 45 | 2.0 | 3.0 | 0.00 | 0.00 | 0.00 | 87 | 1017.9 |
| 20260507073011 | 51 | 45 | 2.0 | 2.0 | 0.00 | 0.00 | 0.00 | 87 | 1018.0 |
| 20260507072119 | 51 | 45 | 2.0 | 2.0 | 0.00 | 0.00 | 0.00 | 87 | 1017.9 |
| 20260507071420 | 51 | 0 | 2.0 | 2.0 | 0.00 | 0.00 | 0.00 | 87 | 1017.9 |
| 20260507070720 | 51 | 0 | 1.0 | 2.0 | 0.00 | 0.00 | 0.00 | 86 | 1017.8 |
| 20260507070019 | 51 | 0 | 1.0 | 2.0 | 0.00 | 0.00 | 0.00 | 86 | 1017.8 |
| 20260507065320 | 51 | 0 | 0.0 | 0.0 | 0.00 | 0.00 | 0.00 | 87 | 1017.8 |
| 20260507064428 | 51 | 0 | 0.0 | 0.0 | 0.00 | 0.00 | 0.00 | 87 | 1017.7 |
| 20260507063728 | 50 | 0 | 0.0 | 0.0 | 0.00 | 0.00 | 0.00 | 87 | 1017.7 |
| 20260507063028 | 50 | 0 | 0.0 | 0.0 | 0.00 | 0.00 | 0.00 | 87 | 1017.7 |
| 20260507062328 | 50 | 0 | 0.0 | 0.0 | 0.00 | 0.00 | 0.00 | 87 | 1017.6 |
| 20260507061628 | 50 | 338 | 0.0 | 0.0 | 0.00 | 0.00 | 0.00 | 87 | 1017.6 |
| 20260507060737 | 50 | 0 | 0.0 | 0.0 | 0.00 | 0.00 | 0.00 | 87 | 1017.6 |
| 20260507060037 | 50 | 0 | 0.0 | 1.0 | 0.00 | 0.00 | 0.00 | 87 | 1017.6 |
| 20260507055337 | 50 | 0 | 0.0 | 2.0 | 0.00 | 0.00 | 0.00 | 87 | 1017.6 |
| 20260507054637 | 50 | 0 | 1.0 | 2.0 | 0.00 | 0.00 | 0.00 | 87 | 1017.6 |
| 20260507053937 | 50 | 270 | 0.0 | 2.0 | 0.00 | 0.00 | 0.00 | 87 | 1017.6 |
| 20260507053045 | 50 | 270 | 2.0 | 3.0 | 0.00 | 0.00 | 0.00 | 87 | 1017.6 |
| 20260507052346 | 50 | 315 | 1.0 | 3.0 | 0.00 | 0.00 | 0.00 | 87 | 1017.6 |
| 20260507051646 | 50 | 285 | 2.0 | 3.0 | 0.00 | 0.00 | 0.00 | 87 | 1017.6 |
| 20260507050945 | 50 | 292 | 2.0 | 3.0 | 0.00 | 0.00 | 0.00 | 87 | 1017.6 |
| 20260507050245 | 50 | 292 | 3.0 | 4.0 | 0.00 | 0.00 | 0.00 | 87 | 1017.6 |
| 20260507045354 | 50 | 270 | 3.0 | 4.0 | 0.00 | 0.00 | 0.00 | 87 | 1017.7 |
| 20260507044654 | 51 | 270 | 3.0 | 4.0 | 0.00 | 0.00 | 0.00 | 87 | 1017.7 |
| 20260507043954 | 51 | 287 | 3.0 | 4.0 | 0.00 | 0.00 | 0.00 | 86 | 1017.6 |
| 20260507043254 | 51 | 270 | 3.0 | 4.0 | 0.00 | 0.00 | 0.00 | 86 | 1017.6 |
| 20260507042554 | 51 | 270 | 3.0 | 4.0 | 0.00 | 0.00 | 0.00 | 86 | 1017.6 |
| 20260507041703 | 51 | 284 | 3.0 | 4.0 | 0.00 | 0.00 | 0.00 | 86 | 1017.5 |
| 20260507041003 | 52 | 298 | 3.0 | 6.0 | 0.00 | 0.00 | 0.00 | 85 | 1017.6 |
| 20260507040303 | 52 | 270 | 4.0 | 6.0 | 0.00 | 0.00 | 0.00 | 85 | 1017.7 |
| 20260507035603 | 52 | 267 | 4.0 | 6.0 | 0.00 | 0.00 | 0.00 | 85 | 1017.7 |
| 20260507034903 | 52 | 242 | 3.0 | 4.0 | 0.00 | 0.00 | 0.00 | 85 | 1017.7 |
| 20260507034011 | 52 | 242 | 3.0 | 4.0 | 0.00 | 0.00 | 0.00 | 85 | 1017.7 |
| 20260507033312 | 53 | 256 | 2.0 | 4.0 | 0.00 | 0.00 | 0.00 | 85 | 1017.6 |
| 20260507032611 | 53 | 228 | 3.0 | 5.0 | 0.00 | 0.00 | 0.00 | 84 | 1017.7 |
| 20260507031911 | 53 | 250 | 3.0 | 4.0 | 0.00 | 0.00 | 0.00 | 84 | 1017.7 |
| 20260507031211 | 54 | 245 | 2.0 | 4.0 | 0.00 | 0.00 | 0.00 | 84 | 1017.7 |
| 20260507030320 | 54 | 228 | 2.0 | 9.0 | 0.00 | 0.00 | 0.00 | 84 | 1017.6 |
| 20260507025620 | 54 | 225 | 3.0 | 9.0 | 0.00 | 0.00 | 0.00 | 83 | 1017.6 |
| 20260507024920 | 55 | 241 | 2.0 | 6.0 | 0.00 | 0.00 | 0.00 | 83 | 1017.6 |
| 20260507024220 | 55 | 225 | 3.0 | 6.0 | 0.00 | 0.00 | 0.00 | 82 | 1017.6 |
| 20260507023520 | 56 | 239 | 3.0 | 5.0 | 0.00 | 0.00 | 0.00 | 82 | 1017.6 |
| 20260507022628 | 56 | 222 | 3.0 | 9.0 | 0.00 | 0.00 | 0.00 | 81 | 1017.5 |
| 20260507021929 | 56 | 259 | 3.0 | 9.0 | 0.00 | 0.00 | 0.00 | 81 | 1017.5 |
| 20260507021229 | 57 | 250 | 4.0 | 9.0 | 0.00 | 0.00 | 0.00 | 80 | 1017.5 |
| 20260507020529 | 56 | 225 | 3.0 | 5.0 | 0.00 | 0.00 | 0.00 | 81 | 1017.5 |
| 20260507015829 | 56 | 250 | 4.0 | 6.0 | 0.00 | 0.00 | 0.00 | 81 | 1017.6 |
| 20260507014937 | 57 | 242 | 3.0 | 8.0 | 0.00 | 0.00 | 0.00 | 81 | 1017.7 |
| 20260507014237 | 57 | 250 | 2.0 | 12.0 | 0.00 | 0.00 | 0.00 | 81 | 1017.8 |
| 20260507013539 | 57 | 233 | 4.0 | 12.0 | 0.00 | 0.00 | 0.00 | 80 | 1017.8 |
| 20260507012840 | 57 | 225 | 4.0 | 6.0 | 0.00 | 0.00 | 0.00 | 80 | 1017.9 |
| 20260507012137 | 58 | 270 | 4.0 | 7.0 | 0.00 | 0.00 | 0.00 | 79 | 1017.9 |
| 20260507011246 | 58 | 259 | 4.0 | 8.0 | 0.00 | 0.00 | 0.00 | 80 | 1018.0 |
| 20260507010546 | 58 | 264 | 3.0 | 9.0 | 0.00 | 0.00 | 0.00 | 79 | 1018.0 |
| 20260507005846 | 58 | 211 | 4.0 | 6.0 | 0.00 | 0.00 | 0.00 | 79 | 1018.0 |
| 20260507005146 | 58 | 267 | 3.0 | 9.0 | 0.00 | 0.00 | 0.00 | 80 | 1018.1 |
| 20260507004446 | 58 | 262 | 5.0 | 9.0 | 0.00 | 0.00 | 0.00 | 79 | 1018.1 |
| 20260507003554 | 58 | 295 | 3.0 | 6.0 | 0.00 | 0.00 | 0.00 | 79 | 1018.0 |
| 20260507002855 | 58 | 273 | 4.0 | 6.0 | 0.00 | 0.00 | 0.00 | 79 | 1018.0 |
| 20260507002155 | 58 | 278 | 4.0 | 9.0 | 0.00 | 0.00 | 0.00 | 79 | 1018.0 |
| 20260507001455 | 59 | 284 | 4.0 | 8.0 | 0.00 | 0.00 | 0.00 | 79 | 1018.0 |
| 20260507000603 | 59 | 276 | 4.0 | 7.0 | 0.00 | 0.00 | 0.00 | 79 | 1018.1 |
| 20260506235903 | 59 | 283 | 4.0 | 6.0 | 0.00 | 0.00 | 0.00 | 79 | 1018.0 |
| 20260506235205 | 59 | 284 | 3.0 | 7.0 | 0.00 | 0.00 | 0.00 | 79 | 1018.1 |
| 20260506234504 | 60 | 231 | 4.0 | 7.0 | 0.00 | 0.00 | 0.00 | 78 | 1018.1 |
| 20260506233803 | 61 | 225 | 3.0 | 6.0 | 0.00 | 0.00 | 0.00 | 78 | 1018.1 |
| 20260506232912 | 61 | 287 | 4.0 | 8.0 | 0.00 | 0.00 | 0.00 | 77 | 1018.2 |
| 20260506232212 | 61 | 244 | 4.0 | 6.0 | 0.00 | 0.00 | 0.00 | 77 | 1018.2 |
| 20260506231512 | 62 | 241 | 3.0 | 8.0 | 0.00 | 0.00 | 0.00 | 77 | 1018.4 |
| 20260506230812 | 62 | 231 | 4.0 | 7.0 | 0.00 | 0.00 | 0.00 | 76 | 1018.5 |
| 20260506230112 | 63 | 288 | 3.0 | 6.0 | 0.00 | 0.00 | 0.00 | 76 | 1018.6 |
| 20260506225412 | 63 | 267 | 3.0 | 6.0 | 0.00 | 0.00 | 0.00 | 76 | 1018.6 |
| 20260506224712 | 64 | 257 | 4.0 | 6.0 | 0.00 | 0.00 | 0.00 | 75 | 1018.7 |
| 20260506223822 | 64 | 285 | 4.0 | 8.0 | 0.00 | 0.00 | 0.00 | 75 | 1018.8 |
| 20260506223120 | 65 | 280 | 3.0 | 6.0 | 0.00 | 0.00 | 0.00 | 74 | 1018.8 |
| 20260506222421 | 65 | 225 | 3.0 | 5.0 | 0.00 | 0.00 | 0.00 | 74 | 1018.9 |
| 20260506221720 | 65 | 219 | 3.0 | 9.0 | 0.00 | 0.00 | 0.00 | 75 | 1019.0 |
| 20260506221020 | 65 | 265 | 5.0 | 9.0 | 0.00 | 0.00 | 0.00 | 74 | 1019.1 |
| 20260506220320 | 66 | 236 | 3.0 | 6.0 | 0.00 | 0.00 | 0.00 | 74 | 1019.2 |
| 20260506215429 | 65 | 195 | 3.0 | 5.0 | 0.00 | 0.00 | 0.00 | 74 | 1019.2 |
| 20260506214729 | 65 | 215 | 3.0 | 6.0 | 0.00 | 0.00 | 0.00 | 74 | 1019.2 |
| 20260506214029 | 65 | 228 | 3.0 | 6.0 | 0.00 | 0.00 | 0.00 | 75 | 1019.2 |
| 20260506213138 | 66 | 197 | 3.0 | 5.0 | 0.00 | 0.00 | 0.00 | 74 | 1019.2 |
| 20260506212438 | 65 | 262 | 3.0 | 4.0 | 0.00 | 0.00 | 0.00 | 75 | 1019.3 |
| 20260506211737 | 65 | 220 | 3.0 | 4.0 | 0.00 | 0.00 | 0.00 | 74 | 1019.4 |
| 20260506211037 | 65 | 208 | 2.0 | 5.0 | 0.00 | 0.00 | 0.00 | 74 | 1019.3 |
| 20260506210338 | 65 | 225 | 2.0 | 5.0 | 0.00 | 0.00 | 0.00 | 74 | 1019.4 |
| 20260506205446 | 65 | 212 | 3.0 | 5.0 | 0.00 | 0.00 | 0.00 | 75 | 1019.3 |
| 20260506204748 | 65 | 217 | 3.0 | 6.0 | 0.00 | 0.00 | 0.00 | 75 | 1019.4 |
| 20260506204046 | 65 | 210 | 4.0 | 6.0 | 0.00 | 0.00 | 0.00 | 75 | 1019.5 |
| 20260506203346 | 65 | 252 | 3.0 | 6.0 | 0.00 | 0.00 | 0.00 | 75 | 1019.6 |